Decorah, IA

2:17 PM CST on February 17, 2018 (GMT -0600)
Decorah Municipal

Weather History for KDEH - April, 2013

Change the Weather History Date:

Wednesday, April 17, 2013

  Actual Average Record
Temperature  
Mean Temperature 39 °F -  
Max Temperature 41 °F 62 °F 83 °F (1958)
Min Temperature 37 °F 37 °F 19 °F (1951)
Degree Days  
Heating Degree Days 26    
Moisture  
Dew Point 34 °F    
Average Humidity 84    
Maximum Humidity 100    
Minimum Humidity 61    
Precipitation  
Precipitation 0.45 in - - ()
Sea Level Pressure  
Sea Level Pressure 30.05 in    
Wind  
Wind Speed 11 mph (ENE)    
Max Wind Speed 26 mph    
Max Gust Speed 40 mph    
Visibility 8 miles    
Events Rain    
Averages and records for this station are not official NWS values.
T = Trace of Precipitation, MM = Missing Value Source: NWS Daily Summary

Daily Weather History Graph

Daily Weather History Graph

Search for Another Location

Airport or City:

Trip Planner

Search our weather history database for the weather conditions in past years. The results will help you decide how hot, cold, wet, or windy it might be!

Date:

Astronomy

Apr. 17, 2013 Rise Set
Actual Time 6:21 AM CDT 7:52 PM CDT
Civil Twilight 5:51 AM CDT 8:22 PM CDT
Nautical Twilight 5:15 AM CDT 8:58 PM CDT
Astronomical Twilight 4:36 AM CDT 9:37 PM CDT
Moon 11:32 AM CDT 1:34 AM CDT
Length of Visible Light 14h 31m
Length of Day
13h 31m
Waxing Crescent, 42% of the Moon is Illuminated
Apr 17
Waxing Crescent
Apr 18
First Quarter
Apr 25
Full
May 2
Last Quarter
May 9
New

Hourly Weather History & Observations

Time (CDT) Temp. Windchill Dew Point Humidity Pressure Visibility Wind Dir Wind Speed Gust Speed Precip Events Conditions
12:15 AM 41.0 °F 35.8 °F 28.4 °F 61% 30.26 in 10.0 mi NE 8.1 mph - N/A   Mostly Cloudy
12:35 AM 41.0 °F 35.2 °F 28.4 °F 61% 30.26 in 10.0 mi NE 9.2 mph - N/A   Mostly Cloudy
12:55 AM 39.2 °F 33.0 °F 28.4 °F 65% 30.26 in 10.0 mi ENE 9.2 mph - N/A   Mostly Cloudy
1:15 AM 39.2 °F 33.0 °F 30.2 °F 70% 30.26 in 10.0 mi ENE 9.2 mph - N/A   Overcast
1:35 AM 39.2 °F 33.0 °F 28.4 °F 65% 30.26 in 10.0 mi ENE 9.2 mph - N/A   Overcast
1:55 AM 39.2 °F 32.5 °F 28.4 °F 65% 30.26 in 10.0 mi ENE 10.4 mph - N/A   Overcast
2:15 AM 39.2 °F 34.2 °F 28.4 °F 65% 30.25 in 10.0 mi NE 6.9 mph - N/A   Overcast
2:35 AM 39.2 °F 35.0 °F 28.4 °F 65% 30.25 in 10.0 mi ENE 5.8 mph - N/A   Overcast
2:55 AM 39.2 °F 34.2 °F 30.2 °F 70% 30.26 in 10.0 mi ENE 6.9 mph - N/A   Overcast
3:15 AM 39.2 °F 34.2 °F 30.2 °F 70% 30.25 in 10.0 mi ENE 6.9 mph - N/A   Overcast
3:35 AM 39.2 °F 34.2 °F 30.2 °F 70% 30.24 in 10.0 mi NE 6.9 mph - N/A   Overcast
3:55 AM 39.2 °F 32.5 °F 30.2 °F 70% 30.22 in 10.0 mi ENE 10.4 mph - N/A   Overcast
4:15 AM 37.4 °F 31.4 °F 30.2 °F 75% 30.21 in 10.0 mi ENE 8.1 mph - N/A   Overcast
4:35 AM 37.4 °F 30.8 °F 30.2 °F 75% 30.20 in 10.0 mi ENE 9.2 mph - N/A   Overcast
4:55 AM 37.4 °F 32.1 °F 30.2 °F 75% 30.20 in 10.0 mi ENE 6.9 mph - N/A   Overcast
5:15 AM 37.4 °F 31.4 °F 28.4 °F 70% 30.16 in 10.0 mi NE 8.1 mph - N/A   Overcast
5:35 AM 37.4 °F 32.8 °F 30.2 °F 75% 30.20 in 10.0 mi East 5.8 mph 11.5 mph N/A   Overcast
5:55 AM 37.4 °F 30.8 °F 30.2 °F 75% 30.19 in 10.0 mi East 9.2 mph - N/A   Overcast
6:15 AM 37.4 °F 29.8 °F 30.2 °F 75% 30.19 in 10.0 mi East 11.5 mph - N/A   Overcast
6:35 AM 37.4 °F 31.4 °F 30.2 °F 75% 30.22 in 10.0 mi East 8.1 mph 15.0 mph N/A   Overcast
6:55 AM 39.2 °F 33.0 °F 30.2 °F 70% 30.21 in 10.0 mi East 9.2 mph - N/A   Overcast
7:15 AM 39.2 °F 33.0 °F 30.2 °F 70% 30.19 in 10.0 mi East 9.2 mph - N/A   Overcast
7:35 AM 39.2 °F 32.0 °F 30.2 °F 70% 30.18 in 10.0 mi ENE 11.5 mph - N/A   Overcast
7:55 AM 39.2 °F 32.5 °F 30.2 °F 70% 30.17 in 10.0 mi East 10.4 mph - N/A   Overcast
8:15 AM 39.2 °F 32.0 °F 30.2 °F 70% 30.17 in 10.0 mi East 11.5 mph - N/A   Overcast
8:35 AM 41.0 °F 33.5 °F 30.2 °F 65% 30.18 in 10.0 mi East 13.8 mph - N/A   Light Drizzle
9:15 AM 41.0 °F 32.8 °F 30.2 °F 65% 30.12 in 10.0 mi ENE 16.1 mph 24.2 mph N/A   Overcast
9:35 AM 41.0 °F 34.7 °F 32.0 °F 70% 30.18 in 10.0 mi ESE 10.4 mph 17.3 mph N/A   Overcast
9:55 AM 41.0 °F 33.1 °F 32.0 °F 70% 30.16 in 9.0 mi Variable 15.0 mph 25.3 mph N/A   Light Drizzle
10:15 AM 41.0 °F 32.8 °F 32.0 °F 70% 30.14 in 10.0 mi East 16.1 mph 21.9 mph N/A Rain Light Rain
10:35 AM 39.2 °F 30.5 °F 33.8 °F 81% 30.14 in - East 16.1 mph - N/A Rain Light Rain
10:55 AM 39.2 °F 32.5 °F 33.8 °F 81% 30.14 in - East 10.4 mph 21.9 mph 0.05 in Rain Light Rain
11:15 AM - - - N/A% - - North - - N/A Rain Rain
11:35 AM 37.4 °F 32.8 °F 35.6 °F 93% 30.17 in 4.0 mi NNE 5.8 mph - N/A Rain Rain
11:55 AM 37.4 °F 33.8 °F 35.6 °F 93% 30.18 in 3.0 mi NNE 4.6 mph - 0.09 in Rain Rain
12:15 PM 37.4 °F 33.8 °F 35.6 °F 93% 30.18 in 2.5 mi North 4.6 mph - N/A Rain Rain
12:35 PM 37.4 °F 30.8 °F 37.4 °F 100% 30.14 in 4.0 mi ENE 9.2 mph - N/A Rain Rain
12:55 PM 37.4 °F 25.6 °F 35.6 °F 93% 29.97 in 3.0 mi East 26.5 mph 33.4 mph 0.12 in   Mostly Cloudy
1:15 PM 37.4 °F 25.9 °F 37.4 °F 100% 29.96 in 9.0 mi East 25.3 mph 36.8 mph N/A   Mostly Cloudy
1:35 PM 39.2 °F 29.0 °F 37.4 °F 93% 29.99 in 10.0 mi ENE 21.9 mph 29.9 mph N/A   Mostly Cloudy
1:55 PM 39.2 °F 29.8 °F 37.4 °F 93% 29.99 in 10.0 mi ENE 18.4 mph 28.8 mph N/A   Overcast
2:15 PM 39.2 °F 29.6 °F 37.4 °F 93% 29.95 in 10.0 mi ENE 19.6 mph 27.6 mph N/A   Overcast
2:35 PM 39.2 °F 32.0 °F 37.4 °F 93% 29.98 in 10.0 mi ENE 11.5 mph 20.7 mph N/A   Overcast
2:55 PM 39.2 °F 30.2 °F 37.4 °F 93% 29.96 in 10.0 mi ENE 17.3 mph 23.0 mph N/A   Overcast
3:35 PM 41.0 °F 33.9 °F 37.4 °F 87% 30.00 in 10.0 mi East 12.7 mph - N/A   Overcast
3:55 PM 41.0 °F 33.1 °F 37.4 °F 87% 29.97 in 10.0 mi East 15.0 mph - N/A   Overcast
4:15 PM 41.0 °F 33.5 °F 37.4 °F 87% 29.98 in 3.0 mi East 13.8 mph - N/A   Overcast
4:35 PM 39.2 °F 31.2 °F 39.2 °F 100% 29.94 in 1.8 mi East 13.8 mph 19.6 mph N/A   Overcast
4:55 PM 39.2 °F 30.2 °F 39.2 °F 100% 29.92 in 2.0 mi East 17.3 mph - N/A   Overcast
5:15 PM 39.2 °F 29.6 °F 39.2 °F 100% 29.91 in 8.0 mi East 19.6 mph - N/A   Overcast
5:35 PM 39.2 °F 30.5 °F 39.2 °F 100% 29.87 in 9.0 mi East 16.1 mph 25.3 mph N/A   Overcast
5:55 PM 39.2 °F 30.5 °F 39.2 °F 100% 29.86 in 10.0 mi East 16.1 mph - N/A   Overcast
6:15 PM 39.2 °F 30.5 °F 39.2 °F 100% 29.84 in 9.0 mi East 16.1 mph - N/A   Overcast
6:35 PM 39.2 °F 31.2 °F 39.2 °F 100% 29.86 in 9.0 mi East 13.8 mph 19.6 mph N/A   Overcast
6:55 PM 41.0 °F 33.5 °F 39.2 °F 93% 29.84 in 9.0 mi East 13.8 mph - N/A   Overcast
7:15 PM 39.2 °F 31.2 °F 39.2 °F 100% 29.83 in 7.0 mi East 13.8 mph 25.3 mph N/A   Overcast
7:35 PM 41.0 °F 33.5 °F 39.2 °F 93% 29.87 in 8.0 mi East 13.8 mph - N/A   Overcast
7:55 PM 41.0 °F 33.5 °F 39.2 °F 93% 29.85 in 10.0 mi East 13.8 mph - N/A   Overcast
8:15 PM 41.0 °F 37.1 °F 39.2 °F 93% 29.89 in 5.0 mi NE 5.8 mph 15.0 mph N/A Rain Light Rain
8:35 PM 41.0 °F 34.7 °F 39.2 °F 93% 29.86 in 5.0 mi ENE 10.4 mph - N/A Rain Rain
8:55 PM 39.2 °F 34.2 °F 39.2 °F 100% 29.86 in 4.0 mi Variable 6.9 mph 15.0 mph 0.09 in Rain Rain
9:15 PM 39.2 °F 32.5 °F 39.2 °F 100% 29.86 in 4.0 mi NE 10.4 mph 16.1 mph N/A Rain Light Rain
9:55 PM 39.2 °F 35.0 °F 39.2 °F 100% 29.89 in 4.0 mi NNW 5.8 mph - 0.07 in Rain Light Rain
10:15 PM 39.2 °F - 39.2 °F 100% 29.89 in 4.0 mi Calm Calm - N/A Rain Light Rain
10:35 PM 39.2 °F 34.2 °F 39.2 °F 100% 29.85 in 5.0 mi NE 6.9 mph 12.7 mph N/A Rain Light Rain
10:55 PM 39.2 °F 32.0 °F 39.2 °F 100% 29.82 in 7.0 mi ENE 11.5 mph - 0.02 in   Overcast
11:15 PM 39.2 °F 31.2 °F 39.2 °F 100% 29.75 in 6.0 mi ENE 13.8 mph 23.0 mph N/A Rain Light Rain
11:35 PM 39.2 °F 28.3 °F 39.2 °F 100% 29.67 in 7.0 mi East 25.3 mph 40.3 mph N/A   Overcast
11:55 PM 39.2 °F 32.5 °F 39.2 °F 100% 29.76 in 10.0 mi NNE 10.4 mph 16.1 mph 0.01 in   Overcast